Theta_e
307 307 307 307 307 307 308 308 308 308 308 309 309 309 309 309 308 310 312 312 312 309 309 318 320 319 319 317 315 316 317 319 320 317 318 317 316 317 318 319 320 323 329 337 343
306 306 306 306 306 306 306 306 307 307 307 308 308 308 308 307 309 311 310 310 310 311 313 315 319 320 322 320 315 315 318 319 320 319 317 317 317 317 317 318 318 319 327 340 348
306 306 306 306 306 306 306 306 306 307 307 307 307 307 307 307 310 311 315 311 313 313 312 313 314 319 319 320 317 316 319 319 318 317 317 317 317 317 317 318 319 319 320 336 342
305 305 305 305 305 305 305 305 306 306 306 306 306 306 306 308 308 317 313 315 317 314 314 313 316 318 318 318 318 317 317 317 318 316 316 316 317 317 317 318 318 318 319 328 340
305 305 305 305 305 305 305 305 305 305 306 306 306 306 306 309 310 313 319 315 312 319 316 314 316 317 317 318 317 317 317 315 316 315 315 316 316 317 317 317 317 317 318 319 326
304 304 304 304 304 304 304 303 302 304 306 306 307 307 307 308 306 306 308 313 313 318 318 316 315 316 315 316 317 317 315 316 315 316 315 315 316 315 316 316 316 316 317 318 320
303 304 303 304 305 305 304 305 305 305 306 307 307 308 308 309 306 306 307 308 309 311 319 317 315 314 314 315 315 316 316 316 316 315 315 315 315 315 316 315 316 317 318 319 320
303 302 304 305 305 305 305 304 304 305 307 308 308 307 309 307 306 306 306 307 309 315 313 315 316 316 316 316 315 316 317 317 317 317 317 315 317 318 317 316 316 316 317 318 320
303 303 304 305 305 305 304 304 305 303 306 309 309 308 308 306 307 307 307 308 307 309 313 315 317 318 316 317 318 318 318 317 318 316 317 316 317 318 317 318 318 317 317 318 320
303 303 304 304 304 304 304 305 304 304 307 308 307 308 307 307 308 309 312 309 309 309 309 314 318 321 319 319 322 320 319 319 319 317 316 317 317 317 318 317 318 319 318 319 320
304 304 304 304 304 304 305 306 308 309 307 307 307 307 307 306 306 306 313 311 311 312 311 313 317 320 320 320 318 320 320 319 318 318 317 318 318 319 318 318 318 319 319 320 321
303 305 304 304 304 303 305 307 306 305 307 306 308 308 306 304 305 306 309 313 314 316 313 314 316 317 318 319 319 319 320 320 319 317 317 319 319 318 318 318 318 319 320 320 321
303 304 304 303 304 306 306 306 304 304 306 308 307 307 308 307 308 308 306 312 314 316 315 316 315 314 317 319 320 320 320 321 321 319 317 319 319 319 318 318 318 319 320 321 321
303 303 303 303 306 305 306 304 304 304 309 308 307 309 308 310 311 309 310 309 309 313 315 316 315 315 315 319 320 322 319 319 319 319 320 319 321 320 320 319 319 319 319 320 321
303 303 303 303 306 306 305 304 304 303 315 309 308 310 310 310 311 312 310 309 308 309 311 315 315 316 316 317 319 320 319 318 318 319 319 319 320 322 321 320 319 319 319 320 321
302 301 302 306 306 305 304 305 305 313 314 311 309 310 311 311 313 314 313 310 310 312 310 314 314 316 317 317 318 319 319 319 318 318 320 320 320 322 320 320 319 319 322 325 327
301 302 303 304 306 304 304 308 317 317 311 313 311 311 312 313 312 316 317 317 316 317 316 311 313 315 316 318 318 319 321 323 321 321 322 320 320 321 324 325 320 325 330 331 330
301 303 304 304 304 304 308 315 317 312 312 309 310 311 314 312 312 312 316 320 316 314 313 313 313 314 316 318 320 321 321 322 324 324 322 320 321 323 331 332 330 333 332 331 331
303 305 305 305 304 307 313 317 313 312 310 311 311 313 313 313 314 314 318 319 317 316 318 314 313 313 316 319 319 320 320 320 322 322 322 320 324 331 333 331 331 332 330 328 328
305 305 305 304 305 308 313 310 310 309 310 311 315 314 316 315 316 316 317 318 316 318 317 318 318 314 318 318 319 319 319 320 322 324 324 321 323 324 334 332 331 330 329 327 328
305 308 304 305 306 310 311 309 308 308 309 311 314 314 313 317 314 316 317 317 315 318 316 318 321 317 315 320 321 320 320 320 321 322 324 323 324 327 332 333 331 329 327 329 329
306 308 304 305 309 307 308 306 307 309 310 311 311 311 313 313 316 318 320 314 314 315 316 318 323 320 317 319 319 320 321 321 321 323 322 325 336 331 334 331 329 327 326 325 324
307 306 305 306 309 307 306 308 308 310 310 312 312 309 310 313 315 317 317 314 315 317 320 318 326 327 325 324 321 322 321 320 320 321 326 326 338 331 330 327 324 322 321 320 319
307 308 306 307 306 306 308 309 309 309 310 310 310 311 312 313 315 318 316 316 315 317 320 318 324 323 328 327 326 323 322 320 322 324 325 325 336 333 327 323 321 319 318 317 317
305 306 304 307 307 306 308 307 309 310 308 310 312 311 312 313 315 316 314 316 316 319 318 323 327 323 326 325 326 325 320 320 320 321 324 333 335 332 326 323 321 319 318 318 318
303 305 303 304 305 307 307 309 309 309 309 312 311 311 312 315 315 314 315 316 317 317 315 323 327 325 328 324 322 322 321 320 319 321 327 331 337 328 323 319 319 319 320 319 318
302 302 304 304 307 307 309 307 308 308 309 310 311 312 313 313 311 312 314 315 315 318 315 322 328 330 329 326 326 325 322 320 320 325 329 334 331 323 320 319 319 319 319 318 316
Wind_Speed
19 19 19 19 19 19 19 20 20 20 19 19 18 18 18 19 24 22 25 23 14 25 15 7 13 19 24 16 13 16 11 18 23 19 16 8 13 10 5 11 10 10 5 9 4
20 20 20 20 20 20 20 20 19 19 19 19 19 20 19 19 25 32 32 24 24 7 19 21 17 19 17 21 12 16 17 24 17 13 13 11 12 10 8 12 13 12 8 3 9
21 21 21 22 22 23 23 22 22 22 21 20 18 17 16 16 21 8 5 22 19 20 18 20 19 20 20 19 20 17 24 19 12 13 15 15 12 8 10 14 12 13 12 6 6
23 23 23 23 24 24 25 24 24 24 23 23 20 17 15 10 8 3 8 11 9 18 16 21 18 25 22 22 24 17 24 20 15 14 17 16 14 15 13 13 2 8 8 6 9
25 26 26 26 26 27 28 29 28 27 26 24 22 17 12 12 16 7 8 5 3 14 21 20 23 23 23 21 19 27 17 14 18 15 15 13 15 16 14 10 8 9 11 13 10
27 28 29 30 29 29 32 34 35 37 30 29 23 16 15 25 18 18 21 20 15 17 18 20 16 23 14 22 21 11 23 19 16 20 17 17 15 16 13 11 17 17 16 17 15
27 28 29 29 30 31 34 35 40 37 35 31 25 20 19 27 20 13 14 14 19 25 19 22 21 18 14 12 19 18 13 19 22 17 14 16 22 26 19 16 15 15 14 16 16
28 31 31 31 32 34 36 39 33 34 30 24 16 18 16 16 36 40 35 26 12 10 23 24 23 18 19 10 6 21 19 20 19 23 22 12 18 21 23 21 21 20 17 16 18
30 34 33 34 34 36 38 31 29 17 10 7 4 9 12 8 20 24 28 33 35 24 10 8 18 21 19 19 16 17 19 25 18 18 15 23 15 20 15 20 22 19 17 17 16
33 35 35 36 38 34 29 28 17 9 3 1 2 5 10 14 2 8 6 20 16 19 21 16 12 16 19 20 27 25 22 18 24 19 21 21 20 7 11 19 17 16 16 16 15
34 35 36 38 38 29 24 25 10 5 17 15 20 24 26 34 40 22 2 14 13 14 25 20 19 27 33 30 24 18 21 23 14 14 24 25 21 17 12 12 16 18 15 13 14
36 37 37 40 31 14 13 9 10 9 13 19 18 14 18 17 14 19 11 11 12 16 21 14 30 32 27 26 25 25 15 18 14 12 19 20 21 21 19 16 13 14 15 14 16
40 40 39 39 19 8 12 10 10 8 5 13 5 5 2 5 5 7 18 18 16 19 25 23 19 28 24 25 25 26 20 16 20 15 16 12 18 19 18 18 17 16 15 15 15
43 43 39 30 8 13 9 14 8 6 4 3 3 5 5 7 4 10 4 19 24 24 22 26 21 16 30 29 26 26 22 13 17 18 12 17 10 21 19 18 18 18 15 14 14
44 45 34 9 14 10 15 14 7 1 5 12 3 5 11 15 17 12 12 3 26 26 17 22 23 24 25 28 27 22 21 15 14 14 7 16 9 16 21 20 19 19 19 14 9
47 37 16 8 9 13 16 11 2 4 4 15 11 24 22 21 8 12 6 13 3 22 27 24 16 17 21 25 26 21 25 19 14 10 10 15 16 15 15 21 19 20 10 9 8
49 24 10 10 13 21 12 3 5 5 20 11 23 25 20 13 10 9 8 8 5 7 21 24 26 18 16 22 21 26 25 14 13 11 13 21 13 4 12 3 16 14 12 8 7
44 11 8 9 22 14 9 5 5 15 16 20 18 25 6 13 10 7 8 5 10 12 13 21 23 24 19 21 19 32 31 19 32 20 16 18 11 12 13 7 7 11 9 9 8
29 5 8 21 17 9 7 4 7 11 13 12 20 14 12 16 13 7 5 4 3 14 8 18 18 23 19 18 24 32 27 24 17 17 15 11 7 7 16 11 12 13 13 13 12
19 6 12 25 11 8 4 3 6 6 13 8 5 7 19 17 13 14 7 3 1 14 6 6 11 27 21 24 25 23 28 20 11 23 18 14 17 11 17 14 14 14 14 15 16
8 4 15 24 7 5 4 7 13 20 17 4 7 6 12 8 11 8 5 3 2 5 5 9 11 18 24 15 26 19 20 18 12 12 10 12 13 9 20 18 18 16 17 18 19
8 3 17 24 7 5 8 14 14 18 21 6 6 5 4 11 6 7 7 4 12 9 9 6 5 20 30 17 25 22 29 24 14 14 10 11 7 4 19 16 17 18 18 19 20
9 3 8 15 6 9 11 10 13 20 18 6 4 3 4 5 5 11 9 9 13 5 5 4 6 18 6 7 21 25 25 21 14 10 9 13 8 10 16 17 17 20 19 19 20
6 5 4 4 3 13 15 11 16 18 14 11 11 9 12 8 5 7 15 5 18 8 9 4 10 15 10 18 23 28 30 23 14 13 16 11 18 17 17 19 19 19 20 20 19
6 5 3 8 9 15 15 12 20 14 7 9 4 13 19 6 8 6 10 13 12 10 7 3 11 6 9 18 24 28 28 27 16 12 15 20 23 20 20 20 20 20 21 21 20
5 5 4 8 13 15 11 12 17 23 11 9 6 20 19 7 7 16 15 6 4 9 8 8 7 10 10 16 23 26 25 22 16 2 7 25 21 18 19 21 20 20 21 21 20
5 6 4 9 10 10 9 18 22 19 10 17 21 19 13 12 18 22 18 12 10 6 6 6 7 9 7 22 13 12 23 23 11 2 17 23 18 25 20 19 18 19 18 19 18
Wind_Direction
357 352 349 344 339 334 330 327 325 323 321 319 316 313 310 303 302 287 262 246 217 231 233 223 193 195 204 210 213 229 231 234 234 220 240 215 222 206 235 240 209 195 278 23 142
354 351 347 342 337 333 329 327 323 319 317 315 314 312 313 312 300 277 253 233 223 226 189 199 197 189 194 207 201 208 226 235 240 225 232 205 226 179 207 211 217 221 176 124 147
348 344 340 337 333 329 326 323 319 317 313 309 305 303 308 317 298 262 278 220 223 205 212 212 214 198 208 207 200 217 237 232 240 223 236 242 220 211 230 237 203 215 205 165 175
344 340 337 333 329 325 321 316 313 310 307 302 300 300 299 294 275 38 137 115 166 189 201 202 208 203 218 208 210 242 224 246 230 224 238 238 242 235 222 233 239 219 259 243 201
341 338 335 332 329 325 320 315 310 306 301 295 293 290 286 240 242 246 148 167 194 192 201 195 204 201 214 213 221 220 241 227 234 235 229 240 233 237 219 223 241 242 249 234 232
341 336 334 332 328 324 320 316 312 307 298 289 283 271 243 250 262 263 250 251 244 213 212 209 212 210 228 237 221 213 232 234 233 232 231 236 228 233 233 250 249 250 242 239 224
338 332 330 328 325 321 318 313 307 306 297 287 278 256 235 239 259 268 243 245 239 228 219 214 218 205 218 242 232 251 243 230 229 220 224 235 245 239 240 237 234 217 221 235 232
335 334 332 328 326 324 319 313 315 306 300 301 280 252 253 264 252 259 253 251 242 221 227 225 224 236 233 227 226 215 223 232 215 220 220 208 249 216 219 222 223 232 240 233 233
337 337 334 331 329 326 320 321 317 312 339 316 202 197 261 252 240 260 249 237 230 229 221 226 223 218 217 220 219 199 217 221 214 200 203 210 239 235 198 215 224 224 226 228 222
339 337 335 335 330 329 324 330 311 292 283 224 161 208 241 261 350 283 269 224 218 221 221 224 210 199 216 202 214 206 216 221 214 179 216 203 233 165 218 202 212 209 213 218 219
338 336 336 334 332 330 333 332 346 294 320 289 276 274 280 282 295 290 141 174 200 203 198 202 210 210 204 210 224 216 210 224 205 185 212 217 217 214 171 190 217 222 217 217 217
339 336 334 332 330 331 334 358 357 312 303 298 262 264 273 266 271 265 255 187 203 197 197 173 219 217 216 210 217 230 228 209 187 182 207 208 218 231 226 224 216 215 205 201 203
341 335 335 328 330 328 332 350 330 328 280 295 272 261 331 205 240 273 229 227 212 220 193 203 225 229 222 218 210 218 220 200 202 190 216 192 217 228 230 228 221 216 210 191 190
340 336 334 330 302 337 342 339 325 338 292 273 206 203 198 280 250 216 174 246 237 236 207 225 222 210 212 215 202 206 204 192 202 182 195 204 215 206 216 205 212 210 203 197 194
338 335 334 334 308 321 335 327 323 126 304 7 24 106 289 279 271 206 150 278 222 219 235 217 217 216 205 212 197 215 187 196 174 199 184 189 242 186 205 205 202 203 199 189 177
339 341 336 342 297 323 321 315 193 228 331 334 326 329 316 321 328 111 146 182 272 245 222 230 206 221 213 204 204 201 183 197 196 204 213 205 219 170 192 207 197 193 169 169 177
340 337 329 337 328 323 322 237 279 347 336 343 322 331 318 303 326 192 218 198 172 161 212 215 228 204 206 187 193 206 164 176 188 192 218 199 196 358 127 186 170 163 161 152 163
340 350 327 336 327 319 299 254 308 353 342 322 322 312 296 348 333 314 289 262 185 207 192 200 206 213 187 200 182 197 181 180 180 192 184 182 206 161 107 100 118 99 117 119 112
347 333 343 348 337 324 290 351 340 339 329 312 313 316 344 360 337 308 263 288 234 206 175 201 211 190 194 187 184 187 200 200 193 191 161 168 132 122 122 122 132 127 111 106 112
336 315 8 345 336 302 357 339 331 329 311 286 297 328 323 342 331 330 301 76 272 209 272 202 202 186 179 190 191 194 198 207 225 178 172 177 178 155 160 146 134 122 118 119 113
322 282 5 348 300 342 29 334 316 327 347 294 287 292 312 326 311 298 312 9 138 261 170 264 191 178 190 193 190 196 196 206 216 189 176 166 172 127 151 149 139 130 125 120 110
325 320 1 349 30 20 355 323 293 327 341 316 288 266 285 316 285 297 335 354 295 271 158 231 182 172 192 175 198 206 201 203 204 185 202 162 110 284 114 134 130 125 119 112 109
333 319 352 360 31 356 332 312 339 335 338 328 289 255 292 293 303 312 335 306 323 307 163 208 205 158 177 215 203 182 206 192 201 197 186 171 133 103 114 116 123 122 117 114 114
329 339 358 336 100 351 332 337 340 344 324 322 291 286 328 304 251 296 329 311 316 274 251 234 188 161 205 185 178 188 190 193 184 191 181 184 137 137 129 129 128 124 122 120 117
10 18 19 321 333 336 331 329 339 347 318 324 278 323 327 295 305 333 322 320 313 357 350 252 164 107 290 149 168 189 189 190 190 206 187 139 148 146 143 140 136 131 128 125 118
5 346 327 286 295 332 344 343 329 330 321 311 293 314 313 294 290 309 313 313 305 329 335 317 140 141 153 140 177 174 179 190 193 175 163 145 130 133 130 129 132 135 136 126 121
358 290 289 294 319 334 347 329 326 325 305 317 320 314 308 307 306 295 289 275 266 303 329 318 149 171 131 136 147 180 176 181 149 254 150 150 130 130 131 133 135 136 126 126 120